Time,TemperatureF,DewpointF,PressureIn,WindDirection,WindDirectionDegrees,WindSpeedMPH,WindSpeedGustMPH,Humidity,HourlyPrecipIn,Conditions,Clouds,dailyrainin,SoftwareType,DateUTC
2013-02-13 00:06:00,31.5,31.0,29.74,NNW,337,2.7,-999.0,98,-99.99,,,0.00,Acu-Link.com,2013-02-13 05:06:00,
2013-02-13 00:21:00,31.8,31.3,29.74,NNW,337,4.7,-999.0,98,-99.99,,,0.00,Acu-Link.com,2013-02-13 05:21:00,
2013-02-13 00:37:00,31.6,31.1,29.74,ENE,67,0.0,-999.0,98,-99.99,,,0.00,Acu-Link.com,2013-02-13 05:37:00,
2013-02-13 00:52:00,31.3,30.8,29.73,NE,45,3.1,-999.0,98,-99.99,,,0.00,Acu-Link.com,2013-02-13 05:52:00,
2013-02-13 01:07:00,30.7,30.2,29.74,NE,45,2.7,-999.0,98,-99.99,,,0.00,Acu-Link.com,2013-02-13 06:07:00,
2013-02-13 01:22:00,30.0,29.5,29.73,NE,45,2.7,-999.0,98,-99.99,,,0.00,Acu-Link.com,2013-02-13 06:22:00,
2013-02-13 01:38:00,29.5,29.0,29.73,ENE,67,0.0,-999.0,98,-99.99,,,0.00,Acu-Link.com,2013-02-13 06:38:00,
2013-02-13 01:53:00,28.9,28.4,29.74,ENE,67,0.0,-999.0,98,-99.99,,,0.00,Acu-Link.com,2013-02-13 06:53:00,
2013-02-13 02:08:00,28.8,28.3,29.73,ENE,67,4.3,-999.0,98,-99.99,,,0.00,Acu-Link.com,2013-02-13 07:08:00,
2013-02-13 02:24:00,28.2,27.7,29.73,ENE,67,0.0,-999.0,98,-99.99,,,0.00,Acu-Link.com,2013-02-13 07:24:00,
2013-02-13 02:39:00,28.0,27.5,29.74,ENE,67,0.0,-999.0,98,-99.99,,,0.00,Acu-Link.com,2013-02-13 07:39:00,
2013-02-13 02:54:00,27.9,27.4,29.74,ENE,67,0.0,-999.0,98,-99.99,,,0.00,Acu-Link.com,2013-02-13 07:54:00,
2013-02-13 03:09:00,27.5,27.0,29.74,ENE,67,0.0,-999.0,98,-99.99,,,0.00,Acu-Link.com,2013-02-13 08:09:00,
2013-02-13 03:25:00,26.8,26.3,29.74,ENE,67,0.0,-999.0,98,-99.99,,,0.00,Acu-Link.com,2013-02-13 08:25:00,
2013-02-13 03:40:00,27.3,26.8,29.74,ENE,67,2.2,-999.0,98,-99.99,,,0.00,Acu-Link.com,2013-02-13 08:40:00,
2013-02-13 03:55:00,27.9,27.4,29.74,ENE,67,3.1,-999.0,98,-99.99,,,0.00,Acu-Link.com,2013-02-13 08:55:00,
2013-02-13 04:15:00,27.9,27.4,29.74,ENE,67,2.2,-999.0,98,-99.99,,,0.00,Acu-Link.com,2013-02-13 09:15:00,
2013-02-13 04:30:00,27.0,26.5,29.75,ENE,67,0.0,-999.0,98,-99.99,,,0.00,Acu-Link.com,2013-02-13 09:30:00,
2013-02-13 04:46:00,27.1,26.7,29.75,ENE,67,1.6,-999.0,98,-99.99,,,0.00,Acu-Link.com,2013-02-13 09:46:00,
2013-02-13 05:01:00,27.5,27.0,29.75,ENE,67,0.0,-999.0,98,-99.99,,,0.00,Acu-Link.com,2013-02-13 10:01:00,
2013-02-13 05:16:00,29.1,28.6,29.75,South,180,1.1,-999.0,98,-99.99,,,0.00,Acu-Link.com,2013-02-13 10:16:00,
2013-02-13 05:31:00,29.3,28.8,29.74,ESE,112,2.2,-999.0,98,-99.99,,,0.00,Acu-Link.com,2013-02-13 10:31:00,
2013-02-13 05:46:00,29.5,29.0,29.74,ESE,112,2.2,-999.0,98,-99.99,,,0.00,Acu-Link.com,2013-02-13 10:46:00,
2013-02-13 06:02:00,28.9,28.4,29.74,ESE,112,1.1,-999.0,98,-99.99,,,0.00,Acu-Link.com,2013-02-13 11:02:00,
2013-02-13 06:17:00,27.5,27.0,29.74,ESE,112,0.0,-999.0,98,-99.99,,,0.00,Acu-Link.com,2013-02-13 11:17:00,
2013-02-13 06:32:00,27.1,26.7,29.74,WNW,292,3.1,-999.0,98,-99.99,,,0.00,Acu-Link.com,2013-02-13 11:32:00,
2013-02-13 06:47:00,27.1,26.7,29.74,NE,45,2.2,-999.0,98,-99.99,,,0.00,Acu-Link.com,2013-02-13 11:47:00,
2013-02-13 07:03:00,26.8,26.3,29.74,NNW,337,2.7,-999.0,98,-99.99,,,0.00,Acu-Link.com,2013-02-13 12:03:00,
2013-02-13 07:18:00,25.9,25.4,29.74,NNW,337,0.0,-999.0,98,-99.99,,,0.00,Acu-Link.com,2013-02-13 12:18:00,
2013-02-13 07:33:00,25.9,25.4,29.75,NNW,337,0.0,-999.0,98,-99.99,,,0.00,Acu-Link.com,2013-02-13 12:33:00,
2013-02-13 07:48:00,27.5,27.0,29.75,NNW,337,0.0,-999.0,98,-99.99,,,0.00,Acu-Link.com,2013-02-13 12:48:00,
2013-02-13 08:04:00,28.4,27.9,29.76,NNW,337,0.0,-999.0,98,-99.99,,,0.00,Acu-Link.com,2013-02-13 13:04:00,
2013-02-13 08:19:00,29.5,29.0,29.75,NNW,337,1.6,-999.0,98,-99.99,,,0.00,Acu-Link.com,2013-02-13 13:19:00,
2013-02-13 08:34:00,30.7,30.2,29.75,NNW,337,1.6,-999.0,98,-99.99,,,0.00,Acu-Link.com,2013-02-13 13:34:00,
2013-02-13 08:49:00,33.3,28.7,29.75,NNW,337,1.6,-999.0,83,-99.99,,,0.00,Acu-Link.com,2013-02-13 13:49:00,
2013-02-13 09:05:00,34.5,27.7,29.75,NNW,337,1.6,-999.0,76,-99.99,,,0.00,Acu-Link.com,2013-02-13 14:05:00,
2013-02-13 09:20:00,34.7,28.2,29.74,North,0,5.1,-999.0,77,-99.99,,,0.00,Acu-Link.com,2013-02-13 14:20:00,
2013-02-13 09:35:00,34.9,27.8,29.75,NW,315,0.0,-999.0,75,-99.99,,,0.00,Acu-Link.com,2013-02-13 14:35:00,
2013-02-13 09:50:00,34.9,28.1,29.74,NW,315,3.1,-999.0,76,-99.99,,,0.00,Acu-Link.com,2013-02-13 14:50:00,
2013-02-13 10:05:00,35.8,29.3,29.74,NW,315,2.7,-999.0,77,-99.99,,,0.00,Acu-Link.com,2013-02-13 15:05:00,
2013-02-13 10:20:00,36.1,27.7,29.74,NNW,337,1.1,-999.0,71,-99.99,,,0.00,Acu-Link.com,2013-02-13 15:20:00,
2013-02-13 10:36:00,37.8,27.8,29.73,NE,45,2.7,-999.0,67,-99.99,,,0.00,Acu-Link.com,2013-02-13 15:36:00,
2013-02-13 10:51:00,36.1,25.5,29.73,NNW,337,3.1,-999.0,65,-99.99,,,0.00,Acu-Link.com,2013-02-13 15:51:00,
2013-02-13 11:06:00,36.1,25.9,29.73,NNW,337,3.1,-999.0,66,-99.99,,,0.00,Acu-Link.com,2013-02-13 16:06:00,
2013-02-13 11:21:00,36.0,26.4,29.73,West,270,5.8,-999.0,68,-99.99,,,0.01,Acu-Link.com,2013-02-13 16:21:00,
2013-02-13 11:37:00,35.8,25.9,29.73,NW,315,3.8,-999.0,67,-99.99,,,0.01,Acu-Link.com,2013-02-13 16:37:00,
2013-02-13 11:52:00,36.9,27.3,29.72,NNW,337,2.7,-999.0,68,-99.99,,,0.01,Acu-Link.com,2013-02-13 16:52:00,
2013-02-13 12:07:00,36.0,26.8,29.72,ESE,112,0.0,-999.0,69,-99.99,,,0.01,Acu-Link.com,2013-02-13 17:07:00,
2013-02-13 12:22:00,36.5,25.5,29.72,WNW,292,2.2,-999.0,64,-99.99,,,0.01,Acu-Link.com,2013-02-13 17:22:00,
2013-02-13 12:37:00,36.1,25.9,29.72,NNE,22,2.2,-999.0,66,-99.99,,,0.02,Acu-Link.com,2013-02-13 17:37:00,
2013-02-13 12:53:00,36.3,25.3,29.71,WNW,292,2.2,-999.0,64,-99.99,,,0.02,Acu-Link.com,2013-02-13 17:53:00,
2013-02-13 13:08:00,36.5,26.6,29.70,NNW,337,1.6,-999.0,67,-99.99,,,0.02,Acu-Link.com,2013-02-13 18:08:00,
2013-02-13 13:23:00,37.0,26.8,29.70,ESE,112,2.7,-999.0,66,-99.99,,,0.02,Acu-Link.com,2013-02-13 18:23:00,
2013-02-13 13:39:00,37.9,27.6,29.70,ENE,67,3.1,-999.0,66,-99.99,,,0.02,Acu-Link.com,2013-02-13 18:39:00,
2013-02-13 13:54:00,37.4,27.5,29.69,NE,45,0.0,-999.0,67,-99.99,,,0.04,Acu-Link.com,2013-02-13 18:54:00,
2013-02-13 14:09:00,37.0,26.8,29.70,NE,45,1.1,-999.0,66,-99.99,,,0.04,Acu-Link.com,2013-02-13 19:09:00,
2013-02-13 14:24:00,36.3,26.8,29.69,NE,45,1.6,-999.0,68,-99.99,,,0.04,Acu-Link.com,2013-02-13 19:24:00,
2013-02-13 14:40:00,36.3,26.4,29.68,NE,45,1.6,-999.0,67,-99.99,,,0.04,Acu-Link.com,2013-02-13 19:40:00,
2013-02-13 14:55:00,37.9,28.0,29.67,NE,45,0.0,-999.0,67,-99.99,,,0.05,Acu-Link.com,2013-02-13 19:55:00,
2013-02-13 15:10:00,37.6,26.5,29.67,NE,45,0.0,-999.0,64,-99.99,,,0.05,Acu-Link.com,2013-02-13 20:10:00,
2013-02-13 15:25:00,37.6,26.9,29.67,NE,45,1.1,-999.0,65,-99.99,,,0.05,Acu-Link.com,2013-02-13 20:25:00,
2013-02-13 15:41:00,37.2,27.3,29.66,NE,45,1.6,-999.0,67,-99.99,,,0.05,Acu-Link.com,2013-02-13 20:41:00,
2013-02-13 15:56:00,37.6,26.5,29.66,NE,45,0.0,-999.0,64,-99.99,,,0.05,Acu-Link.com,2013-02-13 20:56:00,
2013-02-13 16:11:00,37.6,26.1,29.66,NE,45,1.6,-999.0,63,-99.99,,,0.05,Acu-Link.com,2013-02-13 21:11:00,
2013-02-13 16:27:00,35.1,26.3,29.66,NE,45,1.6,-999.0,70,-99.99,,,0.05,Acu-Link.com,2013-02-13 21:27:00,
2013-02-13 16:42:00,35.6,27.8,29.67,East,90,0.0,-999.0,73,-99.99,,,0.05,Acu-Link.com,2013-02-13 21:42:00,
2013-02-13 16:57:00,34.3,25.6,29.66,NNE,22,3.1,-999.0,70,-99.99,,,0.05,Acu-Link.com,2013-02-13 21:57:00,
2013-02-13 17:13:00,32.5,28.0,29.66,NNE,22,2.2,-999.0,83,-99.99,,,0.06,Acu-Link.com,2013-02-13 22:13:00,
2013-02-13 17:28:00,30.2,28.4,29.65,NNE,22,2.2,-999.0,93,-99.99,,,0.06,Acu-Link.com,2013-02-13 22:28:00,
2013-02-13 17:43:00,28.2,27.7,29.65,NNE,22,1.6,-999.0,98,-99.99,,,0.06,Acu-Link.com,2013-02-13 22:43:00,
2013-02-13 17:58:00,26.8,26.3,29.64,NNE,22,1.1,-999.0,98,-99.99,,,0.06,Acu-Link.com,2013-02-13 22:58:00,
2013-02-13 18:14:00,24.8,24.3,29.65,NNE,22,0.0,-999.0,98,-99.99,,,0.06,Acu-Link.com,2013-02-13 23:14:00,
2013-02-13 18:29:00,23.7,23.2,29.65,NNE,22,0.0,-999.0,98,-99.99,,,0.06,Acu-Link.com,2013-02-13 23:29:00,
2013-02-13 18:44:00,22.5,22.0,29.65,NNE,22,0.0,-999.0,98,-99.99,,,0.06,Acu-Link.com,2013-02-13 23:44:00,
2013-02-13 19:00:00,22.1,21.6,29.66,NNE,22,0.0,-999.0,98,-99.99,,,0.06,Acu-Link.com,2013-02-14 00:00:00,
2013-02-13 19:15:00,22.3,21.8,29.66,NNE,22,0.0,-999.0,98,-99.99,,,0.06,Acu-Link.com,2013-02-14 00:15:00,
2013-02-13 19:30:00,22.1,21.6,29.66,NNE,22,0.0,-999.0,98,-99.99,,,0.06,Acu-Link.com,2013-02-14 00:30:00,
2013-02-13 19:45:00,22.3,21.8,29.65,NNE,22,0.0,-999.0,98,-99.99,,,0.06,Acu-Link.com,2013-02-14 00:45:00,
2013-02-13 20:01:00,21.9,21.4,29.64,NNE,22,0.0,-999.0,98,-99.99,,,0.06,Acu-Link.com,2013-02-14 01:01:00,
2013-02-13 20:16:00,21.9,21.4,29.65,NNE,22,0.0,-999.0,98,-99.99,,,0.06,Acu-Link.com,2013-02-14 01:16:00,
2013-02-13 20:31:00,22.1,21.6,29.66,NNE,22,1.1,-999.0,98,-99.99,,,0.06,Acu-Link.com,2013-02-14 01:31:00,
2013-02-13 20:46:00,21.9,21.4,29.66,NNE,22,0.0,-999.0,98,-99.99,,,0.06,Acu-Link.com,2013-02-14 01:46:00,
2013-02-13 21:02:00,21.9,21.4,29.67,NNE,22,0.0,-999.0,98,-99.99,,,0.06,Acu-Link.com,2013-02-14 02:02:00,
2013-02-13 21:17:00,21.7,21.3,29.67,NNE,22,0.0,-999.0,98,-99.99,,,0.06,Acu-Link.com,2013-02-14 02:17:00,
2013-02-13 21:32:00,21.9,21.4,29.67,NNE,22,0.0,-999.0,98,-99.99,,,0.06,Acu-Link.com,2013-02-14 02:32:00,
2013-02-13 21:48:00,22.3,21.8,29.66,NNE,22,0.0,-999.0,98,-99.99,,,0.06,Acu-Link.com,2013-02-14 02:48:00,
2013-02-13 22:03:00,22.6,22.2,29.65,NNE,22,0.0,-999.0,98,-99.99,,,0.06,Acu-Link.com,2013-02-14 03:03:00,
2013-02-13 22:18:00,23.0,22.5,29.65,NNE,22,0.0,-999.0,98,-99.99,,,0.06,Acu-Link.com,2013-02-14 03:18:00,
2013-02-13 22:33:00,23.2,22.7,29.65,NNE,22,0.0,-999.0,98,-99.99,,,0.06,Acu-Link.com,2013-02-14 03:33:00,
2013-02-13 22:48:00,23.4,22.9,29.65,NNE,22,0.0,-999.0,98,-99.99,,,0.06,Acu-Link.com,2013-02-14 03:48:00,
2013-02-13 23:04:00,23.4,22.9,29.64,NNE,22,0.0,-999.0,98,-99.99,,,0.06,Acu-Link.com,2013-02-14 04:04:00,
2013-02-13 23:19:00,23.7,23.2,29.64,NNE,22,0.0,-999.0,98,-99.99,,,0.06,Acu-Link.com,2013-02-14 04:19:00,
2013-02-13 23:34:00,23.7,23.2,29.64,NNE,22,0.0,-999.0,98,-99.99,,,0.06,Acu-Link.com,2013-02-14 04:34:00,
2013-02-13 23:49:00,23.7,23.2,29.65,NNE,22,0.0,-999.0,98,-99.99,,,0.06,Acu-Link.com,2013-02-14 04:49:00,